Date,Time,Wetness (Wet Dry or Ice),Wind Speed (m/s),Temperature (C),Humidity (%),Pressure (mb),Radiation (W/m^2)
2019-03-02,23:50:00,DRY,3.90,5.10,52.3,777.00,1.3
2019-03-02,23:55:00,DRY,3.35,5.10,53.0,777.00,0.5
2019-03-03,00:00:00,DRY,3.85,5.05,53.0,777.00,0.8
2019-03-03,00:05:00,DRY,4.05,5.05,53.0,777.00,1.2
2019-03-03,00:10:00,DRY,3.80,5.03,53.0,777.00,2.1
2019-03-03,00:15:00,DRY,3.40,4.95,53.0,777.00,2.1
2019-03-03,00:20:00,DRY,2.67,5.13,51.7,777.00,1.2
2019-03-03,00:25:00,DRY,1.85,5.00,52.0,777.00,2.2
2019-03-03,00:30:00,DRY,2.40,5.03,52.0,777.00,1.7
2019-03-03,00:35:00,DRY,2.70,5.20,51.0,777.00,1.5
2019-03-03,00:40:00,DRY,2.50,5.00,51.7,777.00,0.6
2019-03-03,00:45:00,DRY,3.65,4.85,53.0,777.00,1.4
2019-03-03,00:50:00,DRY,3.00,4.87,52.0,777.00,1.6
2019-03-03,00:55:00,DRY,3.25,4.85,52.0,777.00,2.0
2019-03-03,01:00:00,DRY,3.00,4.63,53.3,777.00,1.5
2019-03-03,01:05:00,DRY,2.70,4.50,53.0,777.00,2.1
2019-03-03,01:10:00,DRY,3.67,4.53,54.0,776.33,1.2
2019-03-03,01:15:00,DRY,3.85,4.45,54.0,777.00,1.5
2019-03-03,01:20:00,DRY,4.43,4.50,53.3,776.33,1.0
2019-03-03,01:25:00,DRY,3.55,4.50,53.5,776.00,1.1
2019-03-03,01:30:00,DRY,5.00,4.47,53.3,776.00,1.4
2019-03-03,01:35:00,DRY,3.75,4.35,55.0,776.00,1.2
2019-03-03,01:40:00,DRY,3.83,4.30,55.0,776.00,1.0
2019-03-03,01:45:00,DRY,4.95,4.10,54.0,776.50,1.3
2019-03-03,01:50:00,DRY,5.00,4.20,54.3,776.00,1.3
2019-03-03,01:55:00,DRY,4.55,4.30,55.0,776.00,1.1
2019-03-03,02:00:00,DRY,4.60,4.27,54.7,776.00,1.5
2019-03-03,02:05:00,DRY,4.20,4.20,55.5,776.00,1.1
2019-03-03,02:10:00,DRY,5.03,4.30,56.0,776.00,1.3
2019-03-03,02:15:00,DRY,4.00,4.30,55.0,776.00,0.9
2019-03-03,02:20:00,DRY,3.67,4.20,57.3,776.00,0.9
2019-03-03,02:25:00,DRY,4.00,4.15,59.0,776.00,1.2
2019-03-03,02:30:00,DRY,4.70,4.13,58.3,776.00,1.0
2019-03-03,02:35:00,DRY,3.80,4.00,58.0,776.00,1.1
2019-03-03,02:40:00,DRY,4.30,4.10,56.7,776.00,1.2
2019-03-03,02:45:00,DRY,5.30,4.10,56.5,776.00,1.6
2019-03-03,02:50:00,DRY,4.67,4.20,56.7,776.00,1.5
2019-03-03,02:55:00,DRY,4.70,4.25,55.0,776.00,1.4
2019-03-03,03:00:00,DRY,2.37,4.20,53.3,776.00,1.1
2019-03-03,03:05:00,DRY,3.35,4.10,52.5,776.00,1.4
2019-03-03,03:10:00,DRY,2.77,4.07,53.3,776.00,1.5
2019-03-03,03:15:00,DRY,4.05,4.25,52.0,776.00,1.1
2019-03-03,03:20:00,DRY,3.73,4.37,51.0,776.00,1.3
2019-03-03,03:25:00,DRY,3.15,4.55,49.5,776.00,1.2
2019-03-03,03:30:00,DRY,3.40,4.47,49.0,776.00,1.1
2019-03-03,03:35:00,DRY,2.40,4.45,49.0,776.00,0.4
2019-03-03,03:40:00,DRY,3.03,4.57,48.3,776.00,0.8
2019-03-03,03:45:00,DRY,2.70,4.65,47.0,776.00,2.5
2019-03-03,03:50:00,DRY,2.70,4.80,46.3,776.00,1.1
2019-03-03,03:55:00,DRY,2.30,4.80,46.5,776.00,0.9
2019-03-03,04:00:00,DRY,2.90,4.77,46.0,776.00,1.4
2019-03-03,04:05:00,DRY,2.50,4.80,45.0,776.00,1.0
2019-03-03,04:10:00,DRY,2.60,4.73,45.7,776.00,0.9
2019-03-03,04:15:00,DRY,2.60,4.70,46.5,776.00,2.4
2019-03-03,04:20:00,DRY,2.77,4.70,46.7,776.00,0.7
2019-03-03,04:25:00,DRY,3.05,4.95,44.5,776.00,0.9
2019-03-03,04:30:00,DRY,3.33,4.83,45.0,776.00,1.2
2019-03-03,04:35:00,DRY,3.90,4.85,44.0,776.00,1.1
2019-03-03,04:40:00,DRY,3.47,4.80,44.3,776.00,1.3
2019-03-03,04:45:00,DRY,3.00,4.90,43.0,775.50,1.8
2019-03-03,04:50:00,DRY,3.40,4.80,43.7,775.67,2.0
2019-03-03,04:55:00,DRY,3.35,4.60,44.5,775.50,1.5
2019-03-03,05:00:00,DRY,3.77,4.57,45.7,776.00,1.3
2019-03-03,05:05:00,DRY,3.75,4.45,46.5,776.00,1.4
2019-03-03,05:10:00,DRY,3.53,4.53,46.3,776.00,1.7
2019-03-03,05:15:00,DRY,3.15,4.40,48.0,776.00,2.0
2019-03-03,05:20:00,DRY,3.90,4.47,49.0,776.00,1.3
2019-03-03,05:25:00,DRY,4.30,4.40,49.5,775.50,1.0
2019-03-03,05:30:00,DRY,4.27,4.57,47.7,776.00,1.3
2019-03-03,05:35:00,DRY,3.40,4.65,47.5,776.00,1.4
2019-03-03,05:40:00,DRY,3.03,4.50,47.7,776.00,0.8
2019-03-03,05:45:00,DRY,3.60,4.45,47.0,776.00,1.5
2019-03-03,05:50:00,DRY,2.93,4.67,46.3,776.00,1.5
2019-03-03,05:55:00,DRY,4.45,4.75,44.0,776.00,1.0
2019-03-03,06:00:00,DRY,3.20,4.67,43.3,776.00,1.3
2019-03-03,06:05:00,DRY,2.60,4.75,41.5,776.00,1.0
2019-03-03,06:10:00,DRY,3.87,4.73,41.3,776.00,1.3
2019-03-03,06:15:00,DRY,3.50,4.85,40.5,776.00,1.6
2019-03-03,06:20:00,DRY,4.33,5.00,39.0,776.00,1.6
2019-03-03,06:25:00,DRY,4.05,5.25,37.5,776.00,1.6
2019-03-03,06:30:00,DRY,3.83,5.23,37.0,776.00,1.4
2019-03-03,06:35:00,DRY,4.30,5.20,35.5,776.00,1.2
2019-03-03,06:40:00,DRY,3.20,5.23,35.0,776.00,0.8
2019-03-03,06:45:00,DRY,4.00,5.20,38.5,776.00,1.2
2019-03-03,06:50:00,DRY,2.90,5.00,39.3,776.00,1.0
2019-03-03,06:55:00,DRY,3.20,4.90,39.5,776.00,1.1
2019-03-03,07:00:00,DRY,3.90,5.00,39.0,776.00,1.3
2019-03-03,07:05:00,DRY,4.50,5.10,37.0,776.00,1.0
2019-03-03,07:10:00,DRY,3.27,5.03,37.7,776.00,1.2
2019-03-03,07:15:00,DRY,3.85,5.10,36.5,776.00,1.2
2019-03-03,07:20:00,DRY,4.30,5.23,35.3,776.00,1.9
2019-03-03,07:25:00,DRY,3.80,5.10,35.5,776.00,2.5
2019-03-03,07:30:00,DRY,4.90,5.30,35.3,776.00,4.5
2019-03-03,07:35:00,DRY,3.75,5.30,35.0,776.00,6.9
2019-03-03,07:40:00,DRY,2.70,5.17,34.7,776.00,9.1
2019-03-03,07:45:00,DRY,3.65,5.30,35.0,776.00,10.9
2019-03-03,07:50:00,DRY,3.37,5.17,34.7,776.00,13.8
2019-03-03,07:55:00,DRY,3.20,5.20,35.0,776.00,15.4
2019-03-03,08:00:00,DRY,4.43,5.27,35.0,776.67,17.4
2019-03-03,08:05:00,DRY,4.25,5.20,35.0,777.00,18.9
2019-03-03,08:10:00,DRY,3.97,5.37,36.0,776.33,19.8
2019-03-03,08:15:00,DRY,3.85,5.25,37.5,777.00,20.9
2019-03-03,08:20:00,DRY,4.47,5.37,36.7,777.00,22.4
2019-03-03,08:25:00,DRY,4.25,5.45,38.5,777.00,24.3
2019-03-03,08:30:00,DRY,4.63,5.40,38.3,777.00,25.9
2019-03-03,08:35:00,DRY,5.00,5.45,39.0,777.00,69.5
2019-03-03,08:40:00,DRY,4.67,5.63,38.3,777.00,266.4
2019-03-03,08:45:00,DRY,4.40,5.70,35.5,777.00,288.5
2019-03-03,08:50:00,DRY,3.63,5.83,37.7,777.00,309.8
2019-03-03,08:55:00,DRY,4.05,5.75,39.0,777.00,331.1
2019-03-03,09:00:00,DRY,4.43,5.87,39.3,777.00,352.5
2019-03-03,09:05:00,DRY,4.10,5.95,40.0,777.00,373.4
2019-03-03,09:10:00,DRY,4.63,5.93,39.0,777.00,394.9
2019-03-03,09:15:00,DRY,4.30,5.95,39.0,777.00,414.8
2019-03-03,09:20:00,DRY,4.30,6.17,34.3,777.00,436.0
2019-03-03,09:25:00,DRY,3.90,6.30,31.5,777.00,456.2
2019-03-03,09:30:00,DRY,4.57,6.40,29.7,777.00,476.5
2019-03-03,09:35:00,DRY,4.35,6.50,26.5,777.00,496.4
2019-03-03,09:40:00,DRY,3.90,6.53,25.7,777.00,515.9
2019-03-03,09:45:00,DRY,3.65,6.80,23.0,777.00,535.7
2019-03-03,09:50:00,DRY,4.40,6.83,24.0,777.00,554.0
2019-03-03,09:55:00,DRY,5.20,6.65,27.0,777.00,572.7
2019-03-03,10:00:00,DRY,3.43,6.77,27.3,777.00,590.2
2019-03-03,10:05:00,DRY,4.15,6.85,29.5,777.00,608.5
2019-03-03,10:10:00,DRY,4.30,6.73,24.3,777.00,626.9
2019-03-03,10:15:00,DRY,4.45,6.70,28.5,777.00,643.4
2019-03-03,10:20:00,DRY,3.50,6.77,31.0,777.00,660.3
2019-03-03,10:25:00,DRY,4.85,6.70,25.0,777.00,677.0
2019-03-03,10:30:00,DRY,4.70,6.70,17.3,777.00,693.6
2019-03-03,10:35:00,DRY,3.15,6.80,13.0,777.00,709.2
2019-03-03,10:40:00,DRY,3.77,7.03,14.3,777.33,724.0
2019-03-03,10:45:00,DRY,3.85,7.00,17.0,777.00,738.7
2019-03-03,10:50:00,DRY,2.60,6.83,15.7,777.00,753.4
2019-03-03,10:55:00,DRY,3.30,7.10,17.0,777.00,766.5
2019-03-03,11:00:00,DRY,3.60,7.30,16.0,777.00,779.9
2019-03-03,11:05:00,DRY,2.95,7.40,15.5,777.00,792.2
2019-03-03,11:10:00,DRY,3.00,7.50,15.3,777.33,805.0
2019-03-03,11:15:00,DRY,2.55,7.40,20.5,778.00,817.3
2019-03-03,11:20:00,DRY,2.90,7.17,27.3,777.67,830.0
2019-03-03,11:25:00,DRY,3.40,6.90,31.0,777.50,839.5
2019-03-03,11:30:00,DRY,3.37,7.20,27.3,777.33,851.0
2019-03-03,11:35:00,DRY,3.25,7.35,27.5,777.50,861.8
2019-03-03,11:40:00,DRY,3.67,7.23,30.0,777.00,871.1
2019-03-03,11:45:00,DRY,2.30,7.40,35.0,777.00,880.2
2019-03-03,11:50:00,DRY,3.30,6.97,36.7,777.00,889.5
2019-03-03,11:55:00,DRY,1.90,7.10,31.5,777.00,898.3
2019-03-03,12:00:00,DRY,3.80,7.73,27.3,777.33,907.0
2019-03-03,12:05:00,DRY,3.05,7.70,27.0,777.00,914.4
2019-03-03,12:10:00,DRY,2.47,7.80,27.3,777.33,923.4
2019-03-03,12:15:00,DRY,3.80,8.20,19.5,777.00,929.0
2019-03-03,12:20:00,DRY,4.60,8.07,24.3,777.00,935.6
2019-03-03,12:25:00,DRY,3.05,8.05,36.5,777.00,942.0
2019-03-03,12:30:00,DRY,4.00,7.63,51.3,777.00,945.2
2019-03-03,12:35:00,DRY,4.00,7.10,43.0,777.00,951.5
2019-03-03,12:40:00,DRY,3.30,7.17,46.7,777.00,955.8
2019-03-03,12:45:00,DRY,2.35,7.30,53.5,777.00,959.5
2019-03-03,12:50:00,DRY,3.03,7.27,47.7,777.00,962.3
2019-03-03,12:55:00,DRY,3.20,7.35,57.0,777.00,963.2
2019-03-03,13:00:00,DRY,4.00,7.17,55.3,777.00,966.5
2019-03-03,13:05:00,DRY,3.15,6.80,66.5,777.00,967.4
2019-03-03,13:10:00,DRY,3.13,6.97,67.0,777.00,971.1
2019-03-03,13:15:00,DRY,2.55,7.30,59.0,777.00,970.2
2019-03-03,13:20:00,DRY,3.23,7.20,65.0,777.00,971.3
2019-03-03,13:25:00,DRY,2.15,7.10,67.0,777.00,971.3
2019-03-03,13:30:00,DRY,3.10,6.80,68.0,777.00,971.0
2019-03-03,13:35:00,DRY,1.80,7.20,48.0,777.00,969.7
2019-03-03,13:40:00,DRY,2.33,7.40,43.7,777.00,968.6
2019-03-03,13:45:00,DRY,2.45,7.35,54.5,777.00,964.5
2019-03-03,13:50:00,DRY,1.77,7.53,53.0,777.00,963.3
2019-03-03,13:55:00,DRY,3.60,7.55,61.0,777.00,959.3
2019-03-03,14:00:00,DRY,1.50,7.07,53.3,777.00,955.5
2019-03-03,14:05:00,DRY,0.85,7.20,60.0,777.00,950.8
2019-03-03,14:10:00,DRY,1.73,7.47,52.3,777.00,951.1
2019-03-03,14:15:00,DRY,2.95,7.90,53.0,777.00,943.5
2019-03-03,14:20:00,DRY,2.87,7.57,57.7,777.00,938.0
2019-03-03,14:25:00,DRY,2.75,7.25,64.5,777.00,930.9
2019-03-03,14:30:00,DRY,2.73,6.80,66.0,777.00,927.0
2019-03-03,14:35:00,DRY,2.20,6.90,64.0,777.00,919.5
2019-03-03,14:40:00,DRY,3.30,6.57,64.3,777.00,911.2
2019-03-03,14:45:00,DRY,3.10,6.75,62.5,777.00,902.5
2019-03-03,14:50:00,DRY,2.53,6.80,62.0,777.00,893.4
2019-03-03,14:55:00,DRY,2.35,6.50,62.5,777.00,884.5
2019-03-03,15:00:00,DRY,1.87,6.30,63.7,777.00,876.8
2019-03-03,15:05:00,DRY,1.80,6.55,58.5,777.00,867.5
2019-03-03,15:10:00,DRY,2.47,7.03,58.7,777.00,857.7
2019-03-03,15:15:00,DRY,1.55,6.70,62.5,777.00,847.3
2019-03-03,15:20:00,DRY,2.27,6.73,61.0,777.00,835.6
2019-03-03,15:25:00,DRY,2.35,6.40,70.0,777.00,823.6
2019-03-03,15:30:00,DRY,1.93,6.63,59.3,776.33,813.8
2019-03-03,15:35:00,DRY,1.80,7.05,51.0,776.00,802.0
2019-03-03,15:40:00,DRY,1.93,7.13,53.7,776.00,788.9
2019-03-03,15:45:00,DRY,1.90,6.65,58.5,776.00,776.2
2019-03-03,15:50:00,DRY,2.70,6.30,57.3,776.00,765.7
2019-03-03,15:55:00,DRY,3.20,6.45,48.0,776.00,750.1
2019-03-03,16:00:00,DRY,3.13,6.63,38.0,776.00,732.6
2019-03-03,16:05:00,DRY,2.80,6.60,34.5,776.00,718.3
2019-03-03,16:10:00,DRY,3.53,6.47,39.3,776.00,701.9
2019-03-03,16:15:00,DRY,3.25,6.95,31.0,776.00,684.6
2019-03-03,16:20:00,DRY,3.27,6.83,46.3,776.00,669.4
2019-03-03,16:25:00,DRY,3.00,6.50,45.5,776.00,653.1
2019-03-03,16:30:00,DRY,2.37,6.83,33.0,776.00,636.5
2019-03-03,16:35:00,DRY,2.30,6.75,51.0,776.00,616.2
2019-03-03,16:40:00,DRY,2.70,6.57,54.7,776.00,598.4
2019-03-03,16:45:00,DRY,1.50,6.10,72.0,776.00,580.0
2019-03-03,16:50:00,DRY,2.83,6.03,53.0,776.00,562.6
2019-03-03,16:55:00,DRY,3.90,6.70,27.0,776.00,544.0
2019-03-03,17:00:00,DRY,2.33,7.33,24.3,776.00,523.6
2019-03-03,17:05:00,DRY,2.50,7.20,28.5,776.00,505.4
2019-03-03,17:10:00,DRY,2.27,6.60,29.0,776.00,484.8
2019-03-03,17:15:00,DRY,2.85,6.80,32.0,776.00,464.4
2019-03-03,17:20:00,DRY,1.17,6.77,33.3,776.00,443.4
2019-03-03,17:25:00,DRY,3.30,6.60,31.0,776.00,422.2
2019-03-03,17:30:00,DRY,3.43,6.73,24.7,776.00,400.5
2019-03-03,17:35:00,DRY,3.90,6.30,31.0,776.00,380.2
2019-03-03,17:40:00,DRY,2.03,5.87,34.7,776.00,358.2
2019-03-03,17:45:00,DRY,2.90,6.15,32.0,776.00,337.1
2019-03-03,17:50:00,DRY,2.63,6.10,33.7,776.00,315.0
2019-03-03,17:55:00,DRY,3.95,5.95,33.5,776.00,293.6
2019-03-03,18:00:00,DRY,3.27,5.93,33.0,776.00,272.1
2019-03-03,18:05:00,DRY,4.15,5.85,31.5,776.00,250.8
2019-03-03,18:10:00,DRY,2.77,5.97,31.0,776.00,229.4
2019-03-03,18:15:00,DRY,3.05,5.85,31.5,776.00,208.3
2019-03-03,18:20:00,DRY,3.20,5.57,33.0,776.00,188.3
2019-03-03,18:25:00,DRY,4.05,5.55,33.5,776.00,169.1
2019-03-03,18:30:00,DRY,2.67,5.40,32.3,776.00,149.3
2019-03-03,18:35:00,DRY,2.70,5.10,31.0,776.00,127.5
2019-03-03,18:40:00,DRY,3.87,5.10,30.0,776.00,95.6
2019-03-03,18:45:00,DRY,3.95,4.95,29.0,776.00,21.9
2019-03-03,18:50:00,DRY,5.80,4.73,28.0,776.00,18.2
2019-03-03,18:55:00,DRY,3.20,4.70,30.0,776.00,15.9
2019-03-03,19:00:00,DRY,4.50,4.80,25.3,776.33,13.8
2019-03-03,19:05:00,DRY,4.60,4.90,27.5,776.50,11.5
2019-03-03,19:10:00,DRY,5.30,5.20,29.0,776.33,9.3
2019-03-03,19:15:00,DRY,3.95,5.25,28.0,777.00,7.3
2019-03-03,19:20:00,DRY,4.87,5.47,28.0,777.00,3.6
2019-03-03,19:25:00,DRY,4.00,4.95,24.0,777.00,2.0
2019-03-03,19:30:00,DRY,5.00,4.70,22.3,777.00,1.5
2019-03-03,19:35:00,DRY,2.70,4.50,22.5,777.00,1.2
2019-03-03,19:40:00,DRY,4.87,3.93,28.7,777.00,1.6
2019-03-03,19:45:00,DRY,6.05,3.65,32.5,777.00,1.1
2019-03-03,19:50:00,DRY,5.10,3.47,33.7,777.00,1.2
2019-03-03,19:55:00,DRY,5.05,3.35,35.0,777.00,1.1
2019-03-03,20:00:00,DRY,4.47,3.37,33.7,777.00,0.9
2019-03-03,20:05:00,DRY,4.65,3.75,29.0,777.00,1.0
2019-03-03,20:10:00,DRY,5.73,3.53,33.3,777.00,1.4
2019-03-03,20:15:00,DRY,5.85,3.35,33.5,777.00,1.1
2019-03-03,20:20:00,DRY,4.43,3.40,33.3,777.00,1.0
2019-03-03,20:25:00,DRY,5.30,3.30,35.0,777.00,1.4
2019-03-03,20:30:00,DRY,4.10,3.30,34.3,777.00,0.9
2019-03-03,20:35:00,DRY,4.60,3.30,33.0,777.00,1.3
2019-03-03,20:40:00,DRY,4.57,3.30,32.7,777.00,1.0
2019-03-03,20:45:00,DRY,3.65,3.25,33.0,777.00,1.3
2019-03-03,20:50:00,DRY,4.13,3.40,30.7,777.00,1.9
2019-03-03,20:55:00,DRY,5.50,4.05,22.0,777.00,0.8
2019-03-03,21:00:00,DRY,4.57,4.30,18.7,777.00,1.0
2019-03-03,21:05:00,DRY,4.60,4.50,16.0,777.00,1.1
2019-03-03,21:10:00,DRY,4.53,4.40,17.0,777.00,1.2
2019-03-03,21:15:00,DRY,4.45,4.45,17.5,777.00,1.5
2019-03-03,21:20:00,DRY,4.60,4.67,15.7,777.00,1.0
2019-03-03,21:25:00,DRY,4.45,4.45,16.0,777.00,1.8
2019-03-03,21:30:00,DRY,4.70,4.63,13.0,777.00,1.0
2019-03-03,21:35:00,DRY,4.30,4.65,16.0,777.00,1.1
2019-03-03,21:40:00,DRY,4.27,4.87,17.0,777.00,1.2
2019-03-03,21:45:00,DRY,4.65,5.15,22.0,777.00,1.1
2019-03-03,21:50:00,DRY,4.67,5.10,19.0,777.00,1.0
2019-03-03,21:55:00,DRY,3.65,5.10,22.5,777.00,1.3
2019-03-03,22:00:00,DRY,4.73,5.17,21.7,777.00,1.0
2019-03-03,22:05:00,DRY,5.20,5.50,22.5,777.00,1.4
2019-03-03,22:10:00,DRY,4.93,5.67,22.0,777.00,0.5
2019-03-03,22:15:00,DRY,5.90,5.70,20.5,777.00,1.1
2019-03-03,22:20:00,DRY,4.63,5.70,22.3,777.67,1.0
2019-03-03,22:25:00,DRY,4.30,5.70,23.0,777.00,1.1
2019-03-03,22:30:00,DRY,4.00,5.60,22.3,778.00,1.1
2019-03-03,22:35:00,DRY,4.50,5.70,22.5,778.00,1.0
2019-03-03,22:40:00,DRY,4.53,5.70,21.7,777.67,1.0
2019-03-03,22:45:00,DRY,3.80,5.70,20.5,778.00,1.0
2019-03-03,22:50:00,DRY,4.70,5.73,20.3,778.00,1.2
2019-03-03,22:55:00,DRY,4.40,5.55,20.0,778.00,0.8
2019-03-03,23:00:00,DRY,5.07,5.80,22.7,778.00,1.1
2019-03-03,23:05:00,DRY,4.00,5.70,22.5,778.00,1.2
2019-03-03,23:10:00,DRY,5.07,5.87,21.0,778.00,1.1
2019-03-03,23:15:00,DRY,4.45,5.85,20.0,778.00,1.4
2019-03-03,23:20:00,DRY,4.20,5.83,21.7,778.00,2.2
2019-03-03,23:25:00,DRY,4.45,5.80,22.0,778.00,2.4
2019-03-03,23:30:00,DRY,3.53,5.80,21.7,778.00,1.4
2019-03-03,23:35:00,DRY,3.20,5.65,21.0,778.00,1.1
2019-03-03,23:40:00,DRY,4.03,5.60,20.3,778.00,1.6
2019-03-03,23:45:00,DRY,4.80,5.50,23.5,778.00,0.8
2019-03-03,23:50:00,DRY,4.80,5.47,24.0,778.00,0.9
2019-03-03,23:55:00,DRY,4.20,5.35,26.0,778.00,1.1
2019-03-04,00:00:00,DRY,3.83,5.00,30.0,778.00,1.0
2019-03-04,00:05:00,DRY,3.85,4.90,32.5,778.00,1.1
2019-03-04,00:10:00,DRY,4.33,5.17,29.7,778.00,0.9
2019-03-04,00:15:00,DRY,4.70,5.15,29.0,778.00,1.4
2019-03-04,00:20:00,DRY,4.17,4.93,33.7,778.00,1.1
2019-03-04,00:25:00,DRY,4.40,4.95,24.0,778.00,1.2
2019-03-04,00:30:00,DRY,4.13,5.17,32.0,777.00,1.1
2019-03-04,00:35:00,DRY,5.05,5.20,33.0,777.00,1.2
2019-03-04,00:40:00,DRY,3.73,5.03,29.0,777.33,1.3
2019-03-04,00:45:00,DRY,4.85,5.05,29.0,777.00,1.1
2019-03-04,00:50:00,DRY,4.03,5.13,29.3,777.67,1.0
2019-03-04,00:55:00,DRY,3.50,5.05,27.5,777.50,1.0
2019-03-04,01:00:00,DRY,4.17,4.97,29.3,777.00,1.5
2019-03-04,01:05:00,DRY,3.75,5.10,26.5,777.00,1.1
2019-03-04,01:10:00,DRY,3.37,5.03,24.3,777.00,1.1
2019-03-04,01:15:00,DRY,4.95,5.05,27.5,777.00,0.9
2019-03-04,01:20:00,DRY,4.27,4.90,26.7,777.00,1.2
2019-03-04,01:25:00,DRY,3.85,5.05,26.5,777.00,1.3
2019-03-04,01:30:00,DRY,3.03,4.97,25.7,777.00,1.6
2019-03-04,01:35:00,DRY,2.90,4.95,27.5,777.00,1.1
2019-03-04,01:40:00,DRY,2.53,4.90,27.3,777.00,1.4
2019-03-04,01:45:00,DRY,3.75,5.85,26.5,777.00,1.2
2019-03-04,01:50:00,DRY,3.07,5.67,26.3,777.00,0.6
2019-03-04,01:55:00,DRY,2.35,5.85,26.5,777.00,1.6
2019-03-04,02:00:00,DRY,2.80,6.00,23.7,777.00,1.7
2019-03-04,02:05:00,DRY,3.05,6.00,23.5,777.00,0.8
2019-03-04,02:10:00,DRY,3.60,5.30,20.3,777.00,1.0
2019-03-04,02:15:00,DRY,3.35,5.25,20.0,777.00,0.7
2019-03-04,02:20:00,DRY,3.70,5.10,22.3,777.00,1.3
2019-03-04,02:25:00,DRY,5.00,5.00,19.0,777.00,0.9
2019-03-04,02:30:00,DRY,3.70,5.07,18.7,777.00,1.2
2019-03-04,02:35:00,DRY,4.15,5.15,20.0,777.00,1.0
2019-03-04,02:40:00,DRY,4.53,5.13,22.3,777.00,1.4
2019-03-04,02:45:00,DRY,3.90,5.20,16.0,777.00,1.0
2019-03-04,02:50:00,DRY,2.73,5.53,20.3,777.00,0.9
2019-03-04,02:55:00,DRY,2.95,5.80,19.5,777.00,1.2
2019-03-04,03:00:00,DRY,3.27,5.43,19.3,777.00,2.0
2019-03-04,03:05:00,DRY,3.70,5.80,20.5,777.00,1.0
2019-03-04,03:10:00,DRY,3.00,6.27,18.3,776.67,1.2
2019-03-04,03:15:00,DRY,2.20,6.20,19.5,776.50,0.5
2019-03-04,03:20:00,DRY,2.03,6.43,16.3,776.33,1.6
2019-03-04,03:25:00,DRY,2.35,7.05,13.0,776.00,1.9
2019-03-04,03:30:00,DRY,3.07,7.87,10.3,776.00,0.9
2019-03-04,03:35:00,DRY,1.10,7.50,13.5,776.00,0.7
2019-03-04,03:40:00,DRY,2.60,6.60,16.3,776.00,1.0
2019-03-04,03:45:00,DRY,1.95,6.65,16.5,776.00,1.4
2019-03-04,03:50:00,DRY,1.00,7.13,12.7,776.00,1.2
2019-03-04,03:55:00,DRY,2.00,7.20,13.0,776.00,1.1
2019-03-04,04:00:00,DRY,1.73,6.90,14.7,776.00,0.9
2019-03-04,04:05:00,DRY,0.65,6.85,15.0,776.00,1.4
2019-03-04,04:10:00,DRY,0.63,6.70,15.0,776.00,0.4
2019-03-04,04:15:00,DRY,1.65,6.40,16.5,776.00,0.5
2019-03-04,04:20:00,DRY,1.17,6.47,16.0,776.00,0.9
2019-03-04,04:25:00,DRY,0.60,6.50,15.5,776.00,0.7
2019-03-04,04:30:00,DRY,0.70,6.27,16.7,776.00,1.1
2019-03-04,04:35:00,DRY,0.65,6.35,15.5,776.00,0.6
2019-03-04,04:40:00,DRY,0.67,6.53,14.3,776.00,1.5
2019-03-04,04:45:00,DRY,0.80,6.75,14.0,776.00,1.1
2019-03-04,04:50:00,DRY,1.07,6.77,14.0,776.00,1.1
2019-03-04,04:55:00,DRY,1.45,6.50,15.5,776.00,0.7
2019-03-04,05:00:00,DRY,2.10,6.77,15.0,776.00,1.2
2019-03-04,05:05:00,DRY,1.05,6.75,14.5,776.00,1.3
2019-03-04,05:10:00,DRY,0.57,6.60,13.7,776.00,1.5
2019-03-04,05:15:00,DRY,0.55,6.60,13.5,776.00,1.0
2019-03-04,05:20:00,DRY,0.40,6.57,13.0,776.00,0.7
2019-03-04,05:25:00,DRY,1.45,7.20,11.0,776.00,0.6
2019-03-04,05:30:00,DRY,2.10,7.07,12.3,776.00,0.8
2019-03-04,05:35:00,DRY,2.50,6.55,14.0,776.00,1.0
2019-03-04,05:40:00,DRY,2.40,6.87,14.7,776.00,1.5
2019-03-04,05:45:00,DRY,2.70,6.60,17.5,776.00,0.9
2019-03-04,05:50:00,DRY,2.57,6.47,17.7,776.00,0.8
2019-03-04,05:55:00,DRY,2.50,6.55,17.0,776.00,1.1
2019-03-04,06:00:00,DRY,2.60,6.33,18.0,776.00,0.4
2019-03-04,06:05:00,DRY,2.35,5.70,18.5,776.00,0.8
2019-03-04,06:10:00,DRY,2.10,5.80,18.3,776.00,1.4
2019-03-04,06:15:00,DRY,2.60,5.85,18.0,776.00,2.2
2019-03-04,06:20:00,DRY,1.87,5.67,19.0,776.00,1.0
2019-03-04,06:25:00,DRY,2.25,5.70,18.5,776.00,1.4
2019-03-04,06:30:00,DRY,2.20,5.70,18.0,776.00,0.9
2019-03-04,06:35:00,DRY,3.30,5.70,18.5,776.00,1.5
2019-03-04,06:40:00,DRY,2.80,6.30,19.0,776.00,1.0
2019-03-04,06:45:00,DRY,3.30,6.30,19.5,776.00,1.1
2019-03-04,06:50:00,DRY,2.77,6.13,20.0,776.00,1.5
2019-03-04,06:55:00,DRY,3.25,6.00,20.0,776.00,0.9
2019-03-04,07:00:00,DRY,2.87,5.67,20.7,776.00,0.9
2019-03-04,07:05:00,DRY,2.15,5.65,20.0,776.00,0.9
2019-03-04,07:10:00,DRY,2.63,5.83,20.0,776.00,1.4
2019-03-04,07:15:00,DRY,1.90,5.80,19.5,776.50,1.4
2019-03-04,07:20:00,DRY,1.97,5.93,18.3,776.00,1.5
2019-03-04,07:25:00,DRY,1.90,6.10,18.0,776.00,4.2
2019-03-04,07:30:00,DRY,1.73,6.07,18.3,776.67,5.1
2019-03-04,07:35:00,DRY,2.00,5.95,18.5,776.50,7.2
2019-03-04,07:40:00,DRY,1.77,6.13,18.3,776.67,9.2
2019-03-04,07:45:00,DRY,1.85,6.25,18.0,776.00,11.0
2019-03-04,07:50:00,DRY,1.87,5.70,19.0,776.67,14.1
2019-03-04,07:55:00,DRY,1.70,5.95,19.0,776.50,16.8
2019-03-04,08:00:00,DRY,1.67,6.37,18.0,777.00,18.0
2019-03-04,08:05:00,DRY,1.85,6.10,19.0,777.00,19.1
2019-03-04,08:10:00,DRY,2.00,6.10,19.0,777.00,20.8
2019-03-04,08:15:00,DRY,2.20,6.00,19.0,777.00,22.5
2019-03-04,08:20:00,DRY,1.80,6.20,18.7,777.00,22.9
2019-03-04,08:25:00,DRY,1.25,6.55,18.5,777.00,24.2
2019-03-04,08:30:00,DRY,1.57,6.47,18.7,777.00,25.5
2019-03-04,08:35:00,DRY,2.05,6.45,18.0,777.00,122.0
2019-03-04,08:40:00,DRY,2.30,7.07,17.7,777.00,273.6
2019-03-04,08:45:00,DRY,1.85,7.40,16.0,777.00,294.9
2019-03-04,08:50:00,DRY,1.07,7.57,16.3,777.00,316.7
2019-03-04,08:55:00,DRY,0.65,7.85,16.0,777.00,339.5
2019-03-04,09:00:00,DRY,0.80,7.97,16.3,777.00,360.3
2019-03-04,09:05:00,DRY,1.25,8.40,16.0,777.00,381.9
2019-03-04,09:10:00,DRY,0.97,8.30,16.3,777.00,402.2
2019-03-04,09:15:00,DRY,0.45,8.00,17.5,777.00,423.2
2019-03-04,09:20:00,DRY,0.40,8.87,16.3,777.00,443.2
2019-03-04,09:25:00,DRY,1.30,9.35,15.5,777.00,464.2
2019-03-04,09:30:00,DRY,0.73,9.17,16.0,777.00,485.0
2019-03-04,09:35:00,DRY,0.85,9.10,16.5,777.00,504.6
2019-03-04,09:40:00,DRY,0.43,9.10,16.3,777.00,524.7
2019-03-04,09:45:00,DRY,1.85,8.90,15.5,777.00,543.8
2019-03-04,09:50:00,DRY,0.77,8.93,14.7,777.00,562.7
2019-03-04,09:55:00,DRY,0.25,9.25,16.0,777.00,581.0
2019-03-04,10:00:00,DRY,0.63,9.20,19.3,777.00,599.4
2019-03-04,10:05:00,DRY,0.70,9.10,20.0,777.00,615.8
2019-03-04,10:10:00,DRY,0.87,8.90,19.7,777.00,633.4
2019-03-04,10:15:00,DRY,0.70,8.85,19.5,777.00,650.5
2019-03-04,10:20:00,DRY,0.50,9.40,19.0,777.00,668.1
2019-03-04,10:25:00,DRY,0.95,9.65,19.5,777.00,684.6
2019-03-04,10:30:00,DRY,0.80,9.63,18.7,777.00,701.6
2019-03-04,10:35:00,DRY,1.05,9.65,19.0,777.00,716.9
2019-03-04,10:40:00,DRY,0.80,9.60,20.0,777.00,731.2
2019-03-04,10:45:00,DRY,0.85,9.50,21.5,777.00,744.8
2019-03-04,10:50:00,DRY,1.10,9.37,22.7,777.00,759.7
2019-03-04,10:55:00,DRY,0.85,9.50,23.5,777.00,774.3
2019-03-04,11:00:00,DRY,0.77,9.60,23.3,777.00,786.3
2019-03-04,11:05:00,DRY,1.00,9.95,23.0,777.00,800.1
2019-03-04,11:10:00,DRY,0.90,9.80,23.3,777.00,810.8
2019-03-04,11:15:00,DRY,1.65,9.75,25.5,777.00,822.5
2019-03-04,11:20:00,DRY,1.30,9.70,28.0,777.00,833.9
2019-03-04,11:25:00,DRY,1.15,9.70,28.0,777.00,844.2
2019-03-04,11:30:00,DRY,1.03,9.93,28.3,777.00,857.3
2019-03-04,11:35:00,DRY,1.50,9.40,30.0,777.00,867.0
2019-03-04,11:40:00,DRY,1.87,9.73,32.0,777.00,876.1
2019-03-04,11:45:00,DRY,0.80,10.15,31.5,777.00,885.0
2019-03-04,11:50:00,DRY,1.63,10.20,33.0,777.00,895.3
2019-03-04,11:55:00,DRY,1.30,9.95,33.0,777.00,904.7
2019-03-04,12:00:00,DRY,1.43,10.23,34.7,777.00,910.7
2019-03-04,12:05:00,DRY,1.25,9.80,37.0,777.00,919.2
2019-03-04,12:10:00,DRY,2.07,9.73,37.7,777.00,924.5
2019-03-04,12:15:00,DRY,1.80,9.70,37.5,777.00,929.8
2019-03-04,12:20:00,DRY,2.03,9.80,40.0,777.00,936.1
2019-03-04,12:25:00,DRY,1.75,9.60,40.5,777.00,940.5
2019-03-04,12:30:00,DRY,2.03,9.63,42.0,777.00,946.0
2019-03-04,12:35:00,DRY,2.10,9.40,41.0,777.00,951.1
2019-03-04,12:40:00,DRY,2.17,9.83,39.0,777.00,954.5
2019-03-04,12:45:00,DRY,2.35,9.85,35.0,777.00,958.0
2019-03-04,12:50:00,DRY,2.03,9.70,36.7,777.00,963.1
2019-03-04,12:55:00,DRY,1.35,9.50,35.0,777.00,965.2
2019-03-04,13:00:00,DRY,1.67,9.53,36.7,777.00,967.4
2019-03-04,13:05:00,DRY,1.95,9.90,35.0,777.00,972.0
2019-03-04,13:10:00,DRY,1.57,10.40,36.0,777.00,968.8
2019-03-04,13:15:00,DRY,1.65,10.35,35.0,777.00,972.0
2019-03-04,13:20:00,DRY,1.27,10.40,34.3,777.00,973.0
2019-03-04,13:25:00,DRY,1.80,10.00,36.0,777.00,970.3
2019-03-04,13:30:00,DRY,2.00,10.00,38.0,777.00,970.4
2019-03-04,13:35:00,DRY,1.80,10.40,39.0,777.00,966.4
2019-03-04,13:40:00,DRY,1.67,10.50,39.0,777.00,968.2
2019-03-04,13:45:00,DRY,2.05,10.30,39.5,777.00,964.9
2019-03-04,13:50:00,DRY,1.40,10.57,46.7,776.33,961.3
2019-03-04,13:55:00,DRY,1.70,10.60,46.5,776.00,961.1
2019-03-04,14:00:00,DRY,1.30,10.37,44.3,776.33,957.6
2019-03-04,14:05:00,DRY,1.45,10.65,42.5,776.00,950.2
2019-03-04,14:10:00,DRY,1.63,11.07,45.3,776.00,949.5
2019-03-04,14:15:00,DRY,1.30,10.95,46.0,776.00,944.0
2019-03-04,14:20:00,DRY,1.53,10.93,46.0,776.00,938.8
2019-03-04,14:25:00,DRY,1.45,10.70,40.5,776.00,933.2
2019-03-04,14:30:00,DRY,1.77,10.30,44.3,776.00,924.6
2019-03-04,14:35:00,DRY,2.00,10.85,46.5,776.00,919.8
2019-03-04,14:40:00,DRY,1.77,10.87,46.3,776.00,908.6
2019-03-04,14:45:00,DRY,1.90,11.05,43.0,776.00,907.0